Culdrose, United Kingdom

9:39 AM BST on September 25, 2017 (GMT +0100)
Culdrose Navy

Weather History for EGDR - November, 2013

Change the Weather History Date:

Friday, November 8, 2013

  Actual Average Record
Temperature  
Mean Temperature 49 °F -  
Max Temperature 52 °F 50 °F 59 °F (1998)
Min Temperature 46 °F 42 °F 35 °F (2001)
Degree Days  
Heating Degree Days 16    
Moisture  
Dew Point 42 °F    
Average Humidity 79    
Maximum Humidity 93    
Minimum Humidity 61    
Precipitation  
Precipitation 0.08 in - - ()
Sea Level Pressure  
Sea Level Pressure 29.73 in    
Wind  
Wind Speed 9 mph ()    
Max Wind Speed 17 mph    
Max Gust Speed 30 mph    
Visibility 7.3 miles    
Events Rain    
Averages and records for this station are not official NWS values.
T = Trace of Precipitation, MM = Missing Value Source: Averaged Metar Reports

Daily Weather History Graph

Daily Weather History Graph

Search for Another Location

Airport or City:

Trip Planner

Search our weather history database for the weather conditions in past years. The results will help you decide how hot, cold, wet, or windy it might be!

Date:

Astronomy

Nov. 08, 2013 Rise Set
Actual Time 7:22 AM GMT 4:46 PM GMT
Civil Twilight 6:47 AM GMT 5:20 PM GMT
Nautical Twilight 6:08 AM GMT 5:59 PM GMT
Astronomical Twilight 5:31 AM GMT 6:37 PM GMT
Moon 12:09 PM GMT (11/8) 9:51 PM GMT (11/8)
Length of Visible Light 10h 33m
Length of Day
9h 23m
Waxing Crescent, 30% of the Moon is Illuminated
Nov 8
Waxing Crescent
Nov 10
First Quarter
Nov 17
Full
Nov 25
Last Quarter
Dec 3
New

Hourly Weather History & Observations

Time (GMT) Temp. Windchill Dew Point Humidity Pressure Visibility Wind Dir Wind Speed Gust Speed Precip Events Conditions
12:00 AM 49 °F - 44 °F 76% 29.79 in 11 mi WSW 11.5 mph - - Rain Light Rain Showers
12:50 AM 50.0 °F - 42.8 °F 76% 29.74 in 6.2 mi WSW 10.4 mph - N/A   Partly Cloudy
1:50 AM 50.0 °F - 46.4 °F 87% 29.74 in 6.2 mi WSW 11.5 mph - N/A   Partly Cloudy
2:50 AM 50.0 °F - 42.8 °F 76% 29.71 in 6.2 mi SW 10.4 mph - N/A   Partly Cloudy
3:00 AM 49 °F - 42 °F 70% 29.74 in 11 mi SW 10.4 mph - -   Haze
3:50 AM 50.0 °F - 44.6 °F 82% 29.71 in - SW 11.5 mph - N/A   Clear
4:50 AM 50.0 °F - 44.6 °F 82% 29.68 in 5.0 mi SW 11.5 mph - N/A Rain Light Rain
5:50 AM 46.4 °F 42.9 °F 44.6 °F 93% 29.68 in 6.2 mi West 6.9 mph - N/A Rain Light Rain
6:00 AM 47 °F - 45 °F 89% 29.70 in 9 mi West 6.9 mph - - Rain Light Rain
6:50 AM 46.4 °F 45.2 °F 44.6 °F 93% 29.68 in 6.2 mi WSW 3.5 mph - N/A Rain Light Rain
7:50 AM 48.2 °F - 44.6 °F 87% 29.65 in 6.2 mi West 4.6 mph - N/A Rain Light Rain
8:50 AM 46.4 °F 42.9 °F 44.6 °F 93% 29.68 in 6.2 mi WNW 6.9 mph - N/A   Mostly Cloudy
9:00 AM 47 °F - 44 °F 86% 29.69 in 9 mi WNW 6.9 mph - - Rain Light Rain
9:50 AM 48.2 °F - 44.6 °F 87% 29.65 in 6.2 mi WNW 5.8 mph - N/A Rain Light Rain Showers
10:50 AM 48.2 °F - 44.6 °F 87% 29.68 in 6.2 mi WNW 8.1 mph - N/A Rain Light Rain Showers
11:50 AM 48.2 °F - 44.6 °F 87% 29.68 in 6.2 mi West 5.8 mph - N/A   Scattered Clouds
12:00 PM 49 °F - 45 °F 80% 29.69 in 12 mi West 5.8 mph - - Rain Light Rain Showers
12:50 PM 50.0 °F - 44.6 °F 82% 29.68 in 6.2 mi WNW 12.7 mph - N/A   Scattered Clouds
1:50 PM 50.0 °F - 41.0 °F 71% 29.68 in 6.2 mi NW 17.3 mph 29.9 mph N/A Rain Light Rain Showers
2:50 PM 51.8 °F - 41.0 °F 67% 29.71 in 6.2 mi WNW 13.8 mph 25.3 mph N/A   Partly Cloudy
3:00 PM 51 °F - 42 °F 61% 29.72 in 11 mi WNW 13.8 mph - - Rain Light Rain Showers
3:07 PM 50.0 °F - 42.8 °F 76% 29.71 in 6.2 mi WNW 12.7 mph - N/A   Scattered Clouds
3:50 PM 48.2 °F - 41.0 °F 76% 29.71 in 6.2 mi WNW 13.8 mph - N/A   Scattered Clouds
4:50 PM 48.2 °F - 39.2 °F 71% 29.74 in 6.2 mi WNW 15.0 mph - N/A   Scattered Clouds
5:50 PM 46.4 °F 41.1 °F 39.2 °F 76% 29.77 in 6.2 mi WNW 11.5 mph - N/A   Partly Cloudy
6:00 PM 46 °F - 39 °F 68% 29.79 in 12 mi WNW 11.5 mph - -   Partly Cloudy
6:50 PM 46.4 °F 41.5 °F 39.2 °F 76% 29.80 in 6.2 mi WNW 10.4 mph - N/A   Partly Cloudy
7:50 PM 48.2 °F - 39.2 °F 71% 29.80 in 6.2 mi West 12.7 mph - N/A   Partly Cloudy
8:50 PM 46.4 °F 41.1 °F 41.0 °F 81% 29.80 in 6.2 mi WNW 11.5 mph - N/A   Partly Cloudy
9:00 PM 47 °F - 40 °F 69% 29.83 in 12 mi WNW 11.5 mph - -   Scattered Clouds
9:50 PM 48.2 °F - 37.4 °F 66% 29.83 in 6.2 mi West 13.8 mph - N/A   Partly Cloudy
10:50 PM 46.4 °F 41.5 °F 39.2 °F 76% 29.83 in 6.2 mi West 10.4 mph - N/A   Partly Cloudy
11:50 PM 46.4 °F 41.1 °F 39.2 °F 76% 29.83 in 6.2 mi WNW 11.5 mph 23.0 mph N/A   Scattered Clouds